User: anonymous   Login
Location: Unspecified
(0.0000°N, 0.0000°E)
Time: 16:37:23
(UTC+00:00)
Language:

ESSA 2 - Orbit

View from above orbital plane
View from above orbital plane
View from above satellite
View from above satellite

Ground track
Ground track

The orbit data is extracted from the following two-line orbital elements,

1  2091U 66016A   19015.84289413 -.00000034 +00000-0 +48822-4 0  9992
2  2091 101.1567 316.9678 0038834 358.3076 067.4957 12.69376948449856
Epoch (UTC): 15 January 2019 20:13:46
Eccentricity: 0.0038834
inclination: 101.1567°
perigee height: 1354 km
apogee height: 1414 km
right ascension of ascending node: 316.9678°
argument of perigee: 358.3076°
revolutions per day: 12.69376948
mean anomaly at epoch: 67.4957°
orbit number at epoch: 44985

The dashed part of the orbit path shows where the satellite is in the earth's shadow,  

DLR